[[{"header":{"parameterUnit":"m.s-1","parameterCategory":2,"la1":30.2991,"la2":30.254,"lo1":-89.0895,"lo2":-89.0444,"dy":0.0017,"dx":0.0017,"nx":28,"ny":28,"refTime":"2025-12-16T09:00:00:Z","depth":"0","parameterNumber":2,"parameterNumberName":"U-component_of_CURRENTS"},"data":[0,0,0,0,0,0,0,0,0,0,0,0,0,0,0,0,0,0,0,0,0,0,0,0,0,0,0,0,0,0,0,0,0,0,0,0,0,0,0,0,0,0,0,0,0,0,0,0,0,0,0,0,0,0,0,0,0,0,-0.2695,-0.2695,0,-0.2724,-0.2724,-0.2724,-0.2692,-0.2691,-0.269,-0.2689,-0.2655,-0.2655,-0.2655,0,0,0,0,0,0,0,0,0,0,0,0,0,-0.2609,-0.2611,-0.2695,-0.2695,-0.2696,-0.2724,-0.2724,-0.2724,-0.2692,-0.2691,-0.269,-0.2689,-0.2655,-0.2655,-0.2655,0,0,0,0,0,0,0,0,0,0,0,0,0,-0.264,-0.2611,-0.2695,-0.2686,-0.2685,-0.2724,-0.2724,-0.2724,-0.2693,-0.2691,-0.269,-0.2688,-0.2655,-0.2655,-0.2655,-0.2684,0,0,-0.2655,-0.2655,0,0,0,0,0,0,0,0,-0.2639,-0.2643,-0.2686,-0.2686,-0.2686,-0.2705,-0.2682,-0.2709,-0.2693,-0.2687,-0.2689,-0.2688,-0.2669,-0.2668,-0.2674,-0.2683,-0.2681,-0.2655,-0.2655,-0.2655,-0.2655,0,0,0,0,0,0,0,-0.2637,-0.2642,-0.2703,-0.2687,-0.2687,-0.2679,-0.2682,-0.2687,-0.2682,-0.2687,-0.2686,-0.2694,-0.2668,-0.2674,-0.2672,-0.2681,-0.2655,-0.2655,-0.2655,-0.2655,-0.2699,-0.27,0,0,0,0,0,0,-0.2641,-0.264,-0.2703,-0.2705,-0.2661,-0.2682,-0.2685,-0.2698,-0.2684,-0.2682,-0.2695,-0.2692,-0.2674,-0.2673,-0.2671,-0.2698,-0.2655,-0.2655,-0.2655,-0.2698,-0.2699,-0.27,0,0,0,0,0,0,-0.2639,-0.2646,-0.2702,-0.2675,-0.2681,-0.2686,-0.2701,-0.27,-0.2699,-0.2691,-0.2686,-0.2695,-0.2673,-0.2671,-0.2678,-0.2696,-0.2655,-0.2655,-0.2696,-0.2698,-0.27,-0.2755,0,0,0,0,0,0,-0.2636,-0.2646,-0.2652,-0.2675,-0.2683,-0.2728,-0.2702,-0.2701,-0.2708,-0.2705,-0.269,-0.2685,-0.2672,-0.2679,-0.2679,-0.2695,-0.2655,-0.2695,-0.2697,-0.2699,-0.2752,-0.2759,-0.2764,0,0,0,0,0,-0.2633,-0.2652,-0.2652,-0.2659,-0.2694,-0.2729,-0.2733,-0.2728,-0.271,-0.2719,-0.2708,-0.2685,-0.2692,-0.268,-0.2679,-0.2697,-0.2694,-0.2697,-0.2699,-0.2749,-0.2757,-0.2764,0,0,0,0,0,0,-0.2616,-0.2651,-0.2652,-0.2679,-0.2703,-0.2725,-0.2732,-0.2731,-0.2732,-0.2722,-0.2704,-0.27,-0.2713,-0.2701,-0.2688,-0.2716,-0.2688,-0.2691,-0.2727,-0.2734,-0.274,-0.2741,-0.2655,0,0,0,0,0,-0.2618,-0.2636,-0.2672,-0.269,-0.2705,-0.2718,-0.2729,-0.2732,-0.274,-0.2737,-0.2729,-0.2722,-0.2727,-0.2726,-0.2727,-0.2745,-0.273,-0.2755,-0.2762,-0.2767,-0.2768,-0.277,-0.2776,-0.2709,-0.2709,-0.2709,0,0,-0.2613,-0.2636,-0.2644,-0.2687,-0.2701,-0.2735,-0.272,-0.2743,-0.2766,-0.2735,-0.2751,-0.2744,-0.2737,-0.2757,-0.2761,-0.2746,-0.2779,-0.277,-0.2775,-0.2773,-0.2773,-0.2779,-0.2785,-0.2711,-0.271,-0.271,0,0,-0.2621,-0.2638,-0.266,-0.2689,-0.2723,-0.2741,-0.275,-0.2777,-0.2781,-0.2806,-0.2788,-0.2793,-0.2799,-0.2801,-0.2802,-0.2846,-0.2812,-0.2842,-0.2874,-0.2876,-0.2881,-0.2886,-0.2876,-0.2879,-0.2844,-0.2845,-0.2845,0,-0.2612,-0.2649,-0.2671,-0.2707,-0.2731,-0.2746,-0.2781,-0.28,-0.2823,-0.2832,-0.2815,-0.2831,-0.2823,-0.285,-0.2863,-0.286,-0.2847,-0.2845,-0.2884,-0.2888,-0.2891,-0.288,-0.2882,-0.2848,-0.2847,-0.2847,-0.2847,0,-0.2642,-0.2675,-0.2692,-0.2742,-0.2774,-0.2805,-0.2844,-0.2866,-0.287,-0.2884,-0.2906,-0.29,-0.2905,-0.2909,-0.2898,-0.2925,-0.2904,-0.2891,-0.2863,-0.2901,-0.2887,-0.2889,-0.2852,-0.2851,-0.285,-0.2849,0,0,-0.2607,-0.2696,-0.2699,-0.2729,-0.2795,-0.2821,-0.2872,-0.2918,-0.2942,-0.2956,-0.2983,-0.2994,-0.2979,-0.2979,-0.2967,-0.2971,-0.2987,-0.2942,-0.2941,-0.2929,-0.2981,-0.2934,-0.2931,-0.2978,-0.2979,-0.298,-0.2961,0,-0.2618,-0.2686,-0.2732,-0.2791,-0.2829,-0.2874,-0.2921,-0.2963,-0.2988,-0.3019,-0.302,-0.3035,-0.301,-0.3009,-0.3012,-0.2994,-0.2994,-0.2993,-0.2948,-0.2947,-0.2898,-0.2933,-0.2851,-0.2825,-0.2963,-0.2963,-0.2963,0,-0.2625,-0.2671,-0.2734,-0.2819,-0.2839,-0.2877,-0.2944,-0.2989,-0.3045,-0.3064,-0.3083,-0.3081,-0.3094,-0.3063,-0.305,-0.3048,-0.3018,-0.3001,-0.3,-0.2936,-0.2903,-0.2809,-0.2823,-0.2814,-0.2965,-0.2965,-0.2965,0,-0.2574,-0.2669,-0.2714,-0.2744,-0.2844,-0.2873,-0.2919,-0.2989,-0.3027,-0.3083,-0.3107,-0.3124,-0.3123,-0.3102,-0.3065,-0.3057,-0.3043,-0.3028,-0.2958,-0.2954,-0.2866,-0.2853,-0.2861,-0.3018,-0.3018,-0.3018,-0.3018,0,-0.2564,-0.2595,-0.269,-0.2713,-0.276,-0.2842,-0.2893,-0.2946,-0.3023,-0.3061,-0.311,-0.3132,-0.3131,-0.3123,-0.3085,-0.3025,-0.3056,-0.2968,-0.295,-0.2883,-0.2872,-0.2843,-0.2853,-0.3017,-0.3017,-0.3017,-0.3017,0,-0.2494,-0.2564,-0.2613,-0.271,-0.2737,-0.2762,-0.2864,-0.2899,-0.2988,-0.3039,-0.3056,-0.3132,-0.3126,-0.3117,-0.3087,-0.304,-0.2949,-0.2965,-0.2882,-0.2855,-0.2773,-0.2788,-0.2737,-0.2656,-0.2886,-0.2885,-0.2884,0,-0.2464,-0.2483,-0.2577,-0.2595,-0.2632,-0.2692,-0.273,-0.2849,-0.2893,-0.3025,-0.3034,-0.3081,-0.3088,-0.305,-0.2991,-0.2927,-0.2896,-0.2806,-0.2779,-0.2763,-0.2768,-0.2754,-0.2688,-0.2684,-0.2681,-0.2679,-0.2678,0,-0.2386,-0.2417,-0.2451,-0.2494,-0.2531,-0.2586,-0.2652,-0.2693,-0.2829,-0.2888,-0.2958,-0.2987,-0.2995,-0.2924,-0.2867,-0.28,-0.2745,-0.276,-0.2767,-0.2633,-0.2594,-0.2508,-0.2702,-0.2659,-0.2661,-0.2662,-0.2663,-0.2664,-0.23,-0.23,-0.2341,-0.2367,-0.241,-0.2446,-0.2445,-0.2543,-0.2603,-0.2676,-0.2803,-0.284,-0.2853,-0.2772,-0.2714,-0.2604,-0.261,-0.253,-0.2555,-0.2547,-0.2453,-0.2603,-0.2528,-0.2529,-0.253,-0.2531,-0.2532,0,-0.2181,-0.2192,-0.2211,-0.2237,-0.2225,-0.2298,-0.2356,-0.2338,-0.2356,-0.2494,-0.2548,-0.2665,-0.2607,-0.2618,-0.2545,-0.2444,-0.2356,-0.2377,-0.2348,-0.2291,-0.2443,-0.2418,-0.2287,-0.2287,-0.2287,-0.2287,-0.2287,-0.2287,-0.2118,-0.2084,-0.2096,-0.2032,-0.2046,-0.1984,-0.1983,-0.1989,-0.2051,-0.2137,-0.2269,-0.2434,-0.2481,-0.2636,-0.2518,-0.2392,-0.2303,-0.2234,-0.2229,-0.2371,-0.2388,-0.2404,-0.2383,-0.2247,-0.2247,-0.2,-0.1999,-0.1998]},{"header":{"parameterUnit":"m.s-1","parameterCategory":2,"la1":30.2991,"la2":30.254,"lo1":-89.0895,"lo2":-89.0444,"dy":0.0017,"dx":0.0017,"nx":28,"ny":28,"refTime":"2025-12-16T09:00:00:Z","depth":"0","parameterNumber":3,"parameterNumberName":"V-component_of_CURRENTS"},"data":[0,0,0,0,0,0,0,0,0,0,0,0,0,0,0,0,0,0,0,0,0,0,0,0,0,0,0,0,0,0,0,0,0,0,0,0,0,0,0,0,0,0,0,0,0,0,0,0,0,0,0,0,0,0,0,0,0,0,-0.025,-0.0249,0,-0.0159,-0.0158,-0.0157,-0.0093,-0.0093,-0.0092,-0.0092,0.0031,0.0034,0.0037,0,0,0,0,0,0,0,0,0,0,0,0,0,-0.0309,-0.0309,-0.025,-0.0249,-0.0248,-0.0159,-0.0158,-0.0156,-0.0093,-0.0093,-0.0092,-0.0092,0.003,0.0034,0.0037,0,0,0,0,0,0,0,0,0,0,0,0,0,-0.0256,-0.0308,-0.025,-0.0207,-0.0203,-0.0159,-0.0158,-0.0156,-0.0093,-0.0093,-0.0092,-0.0092,0.0029,0.0033,0.0038,0.0056,0,0,0.0052,0.0053,0,0,0,0,0,0,0,0,-0.0259,-0.0253,-0.0214,-0.021,-0.0205,-0.0139,-0.0133,-0.0084,-0.0093,-0.0132,-0.0092,-0.0092,-0.0024,-0.0015,0.0003,0.0062,0.0067,0.0052,0.0055,0.0057,0.0058,0,0,0,0,0,0,0,-0.0263,-0.0256,-0.0212,-0.0213,-0.0208,-0.0172,-0.0165,-0.0124,-0.008,-0.0129,-0.0125,-0.0118,-0.0021,-0.0001,0.0007,0.0069,0.0052,0.0056,0.0059,0.006,0.0164,0.0164,0,0,0,0,0,0,-0.0282,-0.026,-0.0215,-0.0209,-0.0234,-0.0172,-0.0163,-0.0159,-0.0081,-0.0069,-0.0119,-0.0115,-0.0009,0.0001,0.0011,0.004,0.0057,0.0061,0.0063,0.0164,0.0164,0.0164,0,0,0,0,0,0,-0.0283,-0.0278,-0.0218,-0.0234,-0.0224,-0.0172,-0.0167,-0.0157,-0.0138,-0.0074,-0.0061,-0.011,-0.0009,0.0005,0.0046,0.0045,0.0063,0.0067,0.0164,0.0164,0.0164,0.0096,0,0,0,0,0,0,-0.0285,-0.028,-0.0284,-0.0236,-0.0224,-0.0202,-0.0167,-0.0156,-0.0136,-0.0131,-0.0062,-0.005,-0.0007,0.0039,0.0051,0.0051,0.007,0.0164,0.0164,0.0164,0.0098,0.0093,0.009,0,0,0,0,0,-0.0288,-0.03,-0.0285,-0.028,-0.0232,-0.0202,-0.0193,-0.0153,-0.0136,-0.0133,-0.0084,-0.0052,0.0048,0.0043,0.0056,0.0058,0.0163,0.0164,0.0164,0.01,0.0094,0.009,0,0,0,0,0,0,-0.0329,-0.0293,-0.0276,-0.0277,-0.0246,-0.0193,-0.0188,-0.016,-0.0118,-0.0114,-0.0051,-0.0036,-0.0,0.0038,0.0031,0.0089,0.0111,0.0114,0.0058,0.0053,0.0049,0.0032,0.0074,0,0,0,0,0,-0.0342,-0.0341,-0.0299,-0.03,-0.0288,-0.0239,-0.0223,-0.0196,-0.0153,-0.0135,-0.0086,-0.0034,0.0011,0.0037,0.0081,0.0113,0.0156,0.0123,0.0119,0.0115,0.0111,0.0179,0.0181,0.0164,0.0164,0.0164,0,0,-0.0358,-0.0339,-0.0339,-0.0309,-0.0281,-0.0273,-0.0228,-0.021,-0.0198,-0.0128,-0.0098,-0.0049,0.0016,0.0051,0.0071,0.0084,0.0142,0.0115,0.0112,0.011,0.018,0.0181,0.0183,0.0164,0.0164,0.0164,0,0,-0.0398,-0.0375,-0.0389,-0.0368,-0.0337,-0.0304,-0.0303,-0.0253,-0.0225,-0.0192,-0.0137,-0.0088,-0.0024,0.0027,0.006,0.006,0.0115,0.0072,0.0042,0.0107,0.0109,0.0112,0.016,0.0167,0.0072,0.0072,0.0072,0,-0.0421,-0.0431,-0.0389,-0.0396,-0.0386,-0.0324,-0.0334,-0.0296,-0.0238,-0.0212,-0.0195,-0.0086,-0.0034,0.0024,0.0023,0.0051,0.009,0.0053,0.0101,0.0105,0.0108,0.0158,0.0166,0.0069,0.0069,0.007,0.007,0,-0.0469,-0.0475,-0.0482,-0.047,-0.045,-0.0449,-0.0394,-0.0367,-0.0326,-0.0279,-0.0218,-0.0141,-0.0074,-0.005,-0.0014,0.0037,0.0057,0.0084,0.011,0.0105,0.0158,0.0168,0.0064,0.0066,0.0067,0.0067,0,0,-0.0523,-0.052,-0.0521,-0.0532,-0.049,-0.0482,-0.0455,-0.041,-0.0388,-0.032,-0.0281,-0.0198,-0.0147,-0.0106,-0.0045,0.0012,0.0067,0.005,0.0055,0.009,0.0202,0.0257,0.0274,0.0103,0.0105,0.0106,0.0225,0,-0.0574,-0.0618,-0.0589,-0.0616,-0.0632,-0.0566,-0.0546,-0.0492,-0.043,-0.0374,-0.0276,-0.0218,-0.0169,-0.0135,-0.007,0.0038,0.0093,0.0032,0.0208,0.0213,0.0257,0.0288,0.0331,0.0445,0.0236,0.0238,0.0239,0,-0.0629,-0.0651,-0.0696,-0.0694,-0.0692,-0.069,-0.064,-0.0613,-0.051,-0.0459,-0.0373,-0.0289,-0.0187,-0.015,0.0028,-0.0013,0.0082,0.0162,0.0169,0.0253,0.0288,0.042,0.0472,0.0663,0.0255,0.0254,0.0253,0,-0.0697,-0.0722,-0.0763,-0.0764,-0.0748,-0.0745,-0.0724,-0.0642,-0.0616,-0.0507,-0.0468,-0.0331,-0.0256,-0.0119,0.0057,0.0043,0.0254,0.0261,0.0398,0.0402,0.0491,0.0501,0.0745,0.0378,0.0378,0.0378,0.0377,0,-0.0765,-0.0795,-0.0803,-0.0827,-0.0864,-0.0818,-0.0822,-0.0773,-0.0697,-0.0663,-0.052,-0.0454,-0.0245,-0.0091,0.0051,0.0269,0.0258,0.0402,0.0446,0.0468,0.0474,0.0685,0.0745,0.0382,0.0381,0.038,0.038,0,-0.0833,-0.0838,-0.0889,-0.0898,-0.0902,-0.0927,-0.0907,-0.0901,-0.0814,-0.0762,-0.073,-0.0535,-0.0325,-0.0108,0.0136,0.0269,0.0581,0.0536,0.0542,0.0584,0.0874,0.0926,0.1189,0.1279,0.07,0.0703,0.0705,0,-0.0873,-0.0909,-0.0955,-0.0991,-0.1,-0.1024,-0.1036,-0.0972,-0.0955,-0.0808,-0.0785,-0.0566,-0.0392,0.0001,0.0284,0.0568,0.0692,0.076,0.0745,0.0915,0.1006,0.104,0.1098,0.0831,0.0834,0.0836,0.0838,0,-0.0946,-0.096,-0.1002,-0.1086,-0.1123,-0.1157,-0.1162,-0.1167,-0.1073,-0.1,-0.0855,-0.0701,-0.0289,0.0084,0.0473,0.0641,0.0902,0.0814,0.1007,0.1147,0.1186,0.1285,0.0712,0.0858,0.0856,0.0855,0.0854,0.0853,-0.0989,-0.1041,-0.11,-0.1174,-0.1225,-0.1272,-0.1295,-0.1269,-0.123,-0.1094,-0.0931,-0.0666,-0.0098,0.0474,0.0684,0.115,0.1083,0.1275,0.1328,0.135,0.144,0.0902,0.1087,0.1086,0.1086,0.1085,0.1085,0,-0.1042,-0.11,-0.1183,-0.1267,-0.134,-0.1339,-0.1363,-0.1356,-0.1308,-0.1133,-0.0957,-0.0348,0.0219,0.0737,0.1403,0.1654,0.1693,0.1776,0.1848,0.1882,0.1439,0.1449,0.1703,0.1703,0.1702,0.1702,0.1702,0.1702,-0.1069,-0.116,-0.1209,-0.1342,-0.14,-0.1461,-0.1473,-0.1434,-0.1322,-0.1023,-0.069,-0.0417,0.0367,0.1479,0.2113,0.2164,0.2348,0.2335,0.2427,0.2136,0.2094,0.2053,0.2082,0.2464,0.2465,0.286,0.2864,0.2867]}],[{"header":{"parameterUnit":"m.s-1","parameterCategory":2,"la1":30.2991,"la2":30.254,"lo1":-89.0895,"lo2":-89.0444,"dy":0.0017,"dx":0.0017,"nx":28,"ny":28,"refTime":"2025-12-16T09:00:00:Z","depth":"2","parameterNumber":2,"parameterNumberName":"U-component_of_CURRENTS"},"data":[0,0,0,0,0,0,0,0,0,0,0,0,0,0,0,0,0,0,0,0,0,0,0,0,0,0,0,0,0,0,0,0,0,0,0,0,0,0,0,0,0,0,0,0,0,0,0,0,0,0,0,0,0,0,0,0,0,0,-0.2503,-0.2504,0,-0.2531,-0.2531,-0.2531,-0.2506,-0.2505,-0.2504,-0.2503,-0.2475,-0.2475,-0.2475,0,0,0,0,0,0,0,0,0,0,0,0,0,-0.2423,-0.2424,-0.2503,-0.2504,-0.2504,-0.2531,-0.2531,-0.2531,-0.2506,-0.2505,-0.2504,-0.2503,-0.2475,-0.2475,-0.2475,0,0,0,0,0,0,0,0,0,0,0,0,0,-0.2452,-0.2425,-0.2503,-0.2497,-0.2497,-0.2531,-0.2531,-0.2531,-0.2506,-0.2505,-0.2504,-0.2503,-0.2475,-0.2475,-0.2475,-0.2499,0,0,-0.2475,-0.2475,0,0,0,0,0,0,0,0,-0.2451,-0.2455,-0.2497,-0.2497,-0.2497,-0.2516,-0.2493,-0.2519,-0.2506,-0.25,-0.2503,-0.2502,-0.2486,-0.2486,-0.249,-0.2497,-0.2496,-0.2475,-0.2475,-0.2475,-0.2475,0,0,0,0,0,0,0,-0.2449,-0.2454,-0.2511,-0.2498,-0.2498,-0.2491,-0.2494,-0.2498,-0.2496,-0.25,-0.2499,-0.2507,-0.2486,-0.249,-0.2489,-0.2496,-0.2475,-0.2475,-0.2475,-0.2475,-0.2519,-0.252,0,0,0,0,0,0,-0.2453,-0.2452,-0.251,-0.2512,-0.2474,-0.2494,-0.2497,-0.2509,-0.2497,-0.2496,-0.2508,-0.2506,-0.2491,-0.2489,-0.2488,-0.2518,-0.2475,-0.2475,-0.2475,-0.2518,-0.2519,-0.252,0,0,0,0,0,0,-0.2451,-0.2458,-0.2509,-0.2484,-0.2491,-0.2497,-0.2511,-0.251,-0.2513,-0.2504,-0.2501,-0.2511,-0.249,-0.2488,-0.2498,-0.2516,-0.2475,-0.2475,-0.2516,-0.2518,-0.252,-0.2576,0,0,0,0,0,0,-0.2449,-0.2457,-0.2464,-0.2485,-0.2493,-0.2535,-0.2512,-0.2512,-0.2521,-0.2518,-0.2506,-0.2503,-0.2489,-0.2498,-0.2498,-0.2516,-0.2475,-0.2515,-0.2517,-0.2519,-0.2572,-0.2579,-0.2585,0,0,0,0,0,-0.2446,-0.2464,-0.2465,-0.2471,-0.2503,-0.2537,-0.254,-0.2537,-0.2523,-0.2533,-0.2524,-0.2503,-0.2511,-0.2499,-0.2499,-0.2517,-0.2514,-0.2516,-0.2519,-0.257,-0.2578,-0.2585,0,0,0,0,0,0,-0.2432,-0.2464,-0.2465,-0.2491,-0.2514,-0.2533,-0.2542,-0.2543,-0.2546,-0.2538,-0.252,-0.2517,-0.2532,-0.252,-0.2507,-0.2536,-0.2508,-0.2511,-0.2547,-0.2555,-0.2561,-0.2562,-0.2475,0,0,0,0,0,-0.2434,-0.2452,-0.2484,-0.2502,-0.2517,-0.253,-0.2541,-0.2545,-0.2553,-0.2553,-0.2547,-0.2541,-0.2545,-0.2545,-0.2546,-0.2565,-0.255,-0.2576,-0.2582,-0.2587,-0.2589,-0.259,-0.2597,-0.2529,-0.2529,-0.2529,0,0,-0.2431,-0.2452,-0.2461,-0.25,-0.2514,-0.2547,-0.2533,-0.2557,-0.2579,-0.255,-0.257,-0.2563,-0.2556,-0.2576,-0.2581,-0.2566,-0.26,-0.2591,-0.2595,-0.2594,-0.2594,-0.26,-0.2606,-0.2531,-0.253,-0.253,0,0,-0.2441,-0.2457,-0.2478,-0.2506,-0.254,-0.2556,-0.2566,-0.2592,-0.2598,-0.2624,-0.2607,-0.2615,-0.2621,-0.2622,-0.2622,-0.2666,-0.2634,-0.2663,-0.2696,-0.2697,-0.2703,-0.2707,-0.2699,-0.2703,-0.2666,-0.2666,-0.2666,0,-0.2435,-0.247,-0.2489,-0.2524,-0.2547,-0.2563,-0.2596,-0.2615,-0.2639,-0.2649,-0.2635,-0.2652,-0.2645,-0.2669,-0.2683,-0.268,-0.2669,-0.2667,-0.2705,-0.2709,-0.2713,-0.2704,-0.2706,-0.2669,-0.2668,-0.2668,-0.2668,0,-0.2464,-0.2496,-0.2514,-0.256,-0.2591,-0.2622,-0.2658,-0.2682,-0.2688,-0.2702,-0.2726,-0.2721,-0.2726,-0.2731,-0.272,-0.2747,-0.2727,-0.2713,-0.2684,-0.2723,-0.2711,-0.2713,-0.2673,-0.2672,-0.2671,-0.267,0,0,-0.2435,-0.2517,-0.2521,-0.255,-0.2613,-0.2637,-0.2687,-0.2732,-0.2756,-0.2773,-0.28,-0.2812,-0.28,-0.28,-0.2788,-0.2792,-0.2811,-0.2766,-0.2764,-0.2755,-0.2807,-0.2759,-0.2756,-0.2801,-0.2802,-0.2802,-0.2789,0,-0.2447,-0.2511,-0.2554,-0.2611,-0.2646,-0.269,-0.2735,-0.2776,-0.2802,-0.2833,-0.2835,-0.2852,-0.283,-0.2831,-0.2835,-0.2818,-0.2819,-0.2816,-0.2773,-0.2772,-0.2722,-0.2758,-0.254,-0.2507,-0.279,-0.2791,-0.2791,0,-0.2455,-0.2498,-0.2558,-0.2638,-0.2657,-0.2694,-0.2759,-0.2802,-0.2858,-0.2878,-0.2898,-0.2899,-0.2913,-0.2884,-0.2874,-0.2871,-0.2844,-0.2828,-0.2826,-0.2762,-0.2727,-0.2514,-0.2499,-0.2794,-0.2793,-0.2793,-0.2793,0,-0.2409,-0.2498,-0.2541,-0.257,-0.2664,-0.2694,-0.2738,-0.2805,-0.2841,-0.2899,-0.2924,-0.2941,-0.2943,-0.2925,-0.2891,-0.2883,-0.2872,-0.2854,-0.2786,-0.2782,-0.2578,-0.2555,-0.2846,-0.2846,-0.2846,-0.2846,-0.2846,0,-0.2401,-0.2432,-0.2521,-0.2543,-0.2589,-0.2666,-0.2717,-0.2768,-0.2843,-0.2878,-0.2929,-0.2949,-0.2952,-0.2946,-0.2911,-0.2854,-0.2884,-0.2797,-0.2779,-0.2593,-0.2572,-0.2804,-0.2799,-0.2846,-0.2846,-0.2846,-0.2846,0,-0.2338,-0.2403,-0.245,-0.2542,-0.2568,-0.2594,-0.2691,-0.2724,-0.2812,-0.286,-0.2878,-0.2952,-0.2948,-0.2942,-0.2915,-0.2868,-0.2827,-0.2797,-0.2579,-0.2536,-0.2731,-0.2729,-0.2722,-0.2721,-0.2719,-0.2718,-0.2717,0,-0.231,-0.2329,-0.2417,-0.2434,-0.2471,-0.2529,-0.2565,-0.2679,-0.2719,-0.2846,-0.2853,-0.2902,-0.2904,-0.287,-0.2795,-0.273,-0.2788,-0.2498,-0.245,-0.2736,-0.272,-0.2721,-0.2721,-0.2197,-0.2192,-0.2188,-0.2184,0,-0.2237,-0.2268,-0.2299,-0.234,-0.2376,-0.2425,-0.2488,-0.2525,-0.2653,-0.2707,-0.277,-0.2794,-0.2787,-0.2636,-0.2577,-0.2501,-0.2496,-0.2412,-0.2751,-0.2278,-0.2244,-0.2228,-0.2244,-0.2146,-0.215,-0.2153,-0.2155,-0.2156,-0.2158,-0.2156,-0.2194,-0.2219,-0.2259,-0.2288,-0.2283,-0.2368,-0.2418,-0.2457,-0.2586,-0.2545,-0.2532,-0.2338,-0.2232,-0.2138,-0.2303,-0.2178,-0.2189,-0.2205,-0.2163,-0.213,-0.2002,-0.2005,-0.2007,-0.2009,-0.2011,0,-0.2042,-0.2053,-0.207,-0.2091,-0.2073,-0.2148,-0.2195,-0.2153,-0.2152,-0.2224,-0.2249,-0.2042,-0.1975,-0.1966,-0.1781,-0.1758,-0.1712,-0.167,-0.1603,-0.1642,-0.1676,-0.1605,-0.1297,-0.1295,-0.1293,-0.1291,0,0,-0.1982,-0.1945,-0.1953,-0.1885,-0.1899,-0.1828,-0.1822,-0.1781,-0.1785,-0.1718,-0.17,-0.1858,-0.1916,-0.1605,-0.1534,-0.1392,-0.1493,-0.1316,-0.1888,-0.1847,-0.1879,-0.1968,-0.1903,0,0,0,0,0]},{"header":{"parameterUnit":"m.s-1","parameterCategory":2,"la1":30.2991,"la2":30.254,"lo1":-89.0895,"lo2":-89.0444,"dy":0.0017,"dx":0.0017,"nx":28,"ny":28,"refTime":"2025-12-16T09:00:00:Z","depth":"2","parameterNumber":3,"parameterNumberName":"V-component_of_CURRENTS"},"data":[0,0,0,0,0,0,0,0,0,0,0,0,0,0,0,0,0,0,0,0,0,0,0,0,0,0,0,0,0,0,0,0,0,0,0,0,0,0,0,0,0,0,0,0,0,0,0,0,0,0,0,0,0,0,0,0,0,0,-0.0242,-0.0242,0,-0.0155,-0.0154,-0.0153,-0.0092,-0.0092,-0.0091,-0.0091,0.0028,0.003,0.0033,0,0,0,0,0,0,0,0,0,0,0,0,0,-0.0298,-0.0298,-0.0242,-0.0241,-0.0241,-0.0155,-0.0154,-0.0153,-0.0092,-0.0092,-0.0091,-0.0091,0.0027,0.003,0.0034,0,0,0,0,0,0,0,0,0,0,0,0,0,-0.0247,-0.0298,-0.0243,-0.0202,-0.0197,-0.0156,-0.0154,-0.0152,-0.0092,-0.0092,-0.0091,-0.0091,0.0026,0.003,0.0034,0.0052,0,0,0.0047,0.0049,0,0,0,0,0,0,0,0,-0.025,-0.0245,-0.0208,-0.0204,-0.0199,-0.0136,-0.013,-0.0083,-0.0092,-0.013,-0.0091,-0.0091,-0.0026,-0.0017,0.0001,0.0058,0.0063,0.0048,0.005,0.0052,0.0053,0,0,0,0,0,0,0,-0.0254,-0.0248,-0.0206,-0.0208,-0.0202,-0.0168,-0.016,-0.0121,-0.0079,-0.0127,-0.0123,-0.0116,-0.0023,-0.0004,0.0004,0.0065,0.0048,0.0052,0.0054,0.0056,0.0157,0.0157,0,0,0,0,0,0,-0.0272,-0.0252,-0.0209,-0.0203,-0.0226,-0.0168,-0.0159,-0.0155,-0.008,-0.0069,-0.0117,-0.0114,-0.0011,-0.0001,0.0008,0.0037,0.0052,0.0056,0.0059,0.0157,0.0157,0.0157,0,0,0,0,0,0,-0.0274,-0.0269,-0.0212,-0.0227,-0.0218,-0.0168,-0.0163,-0.0154,-0.0135,-0.0073,-0.0061,-0.0109,-0.0011,0.0002,0.0043,0.0042,0.0058,0.0062,0.0157,0.0157,0.0157,0.0093,0,0,0,0,0,0,-0.0276,-0.027,-0.0275,-0.0228,-0.0218,-0.0196,-0.0163,-0.0152,-0.0133,-0.0128,-0.0062,-0.0051,-0.0009,0.0036,0.0047,0.0048,0.0066,0.0157,0.0157,0.0157,0.0095,0.0091,0.0088,0,0,0,0,0,-0.0278,-0.029,-0.0276,-0.0271,-0.0225,-0.0197,-0.0188,-0.0149,-0.0133,-0.013,-0.0083,-0.0053,0.0045,0.0039,0.0052,0.0055,0.0156,0.0157,0.0157,0.0097,0.0092,0.0088,0,0,0,0,0,0,-0.0318,-0.0284,-0.0267,-0.0268,-0.0239,-0.0187,-0.0183,-0.0156,-0.0116,-0.0112,-0.0051,-0.0036,-0.0002,0.0035,0.0027,0.0085,0.0105,0.0108,0.0055,0.0051,0.0047,0.0031,0.0069,0,0,0,0,0,-0.033,-0.0329,-0.0289,-0.029,-0.0279,-0.0232,-0.0216,-0.0191,-0.0149,-0.0131,-0.0084,-0.0034,0.001,0.0035,0.0077,0.0109,0.015,0.0119,0.0116,0.0112,0.0108,0.0173,0.0175,0.0157,0.0157,0.0157,0,0,-0.0346,-0.0328,-0.0327,-0.0299,-0.0272,-0.0264,-0.0221,-0.0204,-0.0192,-0.0125,-0.0096,-0.0048,0.0014,0.0049,0.0069,0.008,0.0137,0.0112,0.0109,0.0107,0.0174,0.0176,0.0177,0.0158,0.0158,0.0157,0,0,-0.0383,-0.0362,-0.0375,-0.0355,-0.0325,-0.0293,-0.0292,-0.0244,-0.0217,-0.0185,-0.0132,-0.0085,-0.0023,0.0027,0.0059,0.006,0.0112,0.0072,0.0044,0.0107,0.0109,0.0111,0.0157,0.0164,0.0073,0.0073,0.0073,0,-0.0406,-0.0415,-0.0375,-0.0381,-0.037,-0.0312,-0.0321,-0.0283,-0.0228,-0.0203,-0.0187,-0.0082,-0.0032,0.0025,0.0025,0.0052,0.0089,0.0054,0.0101,0.0105,0.0108,0.0155,0.0163,0.007,0.007,0.007,0.0071,0,-0.045,-0.0456,-0.0462,-0.0449,-0.043,-0.0429,-0.0376,-0.035,-0.0311,-0.0266,-0.0207,-0.0132,-0.0068,-0.0044,-0.0009,0.0041,0.0059,0.0085,0.0109,0.0106,0.0156,0.0165,0.0065,0.0066,0.0067,0.0068,0,0,-0.0502,-0.0497,-0.0498,-0.0508,-0.0468,-0.046,-0.0433,-0.0389,-0.0369,-0.0303,-0.0267,-0.0185,-0.0136,-0.0097,-0.0038,0.0017,0.0071,0.0053,0.0058,0.0091,0.02,0.0248,0.0264,0.0106,0.0107,0.0108,0.0222,0,-0.0549,-0.0589,-0.0561,-0.0586,-0.0601,-0.0538,-0.0519,-0.0467,-0.0408,-0.0355,-0.0261,-0.0206,-0.0157,-0.0126,-0.0061,0.0042,0.0096,0.0037,0.0205,0.021,0.0248,0.0277,0.0223,0.0323,0.0232,0.0233,0.0235,0,-0.0601,-0.0621,-0.0663,-0.0661,-0.0659,-0.0657,-0.0611,-0.0585,-0.0487,-0.0439,-0.0356,-0.0276,-0.0177,-0.014,0.0033,-0.0007,0.0084,0.0162,0.0169,0.0244,0.0277,0.0315,0.0345,0.0252,0.025,0.0249,0.0248,0,-0.0667,-0.0689,-0.0729,-0.0729,-0.0713,-0.0711,-0.0692,-0.0614,-0.059,-0.0486,-0.0451,-0.0318,-0.0247,-0.0113,0.0057,0.0045,0.0247,0.0255,0.0384,0.0388,0.0391,0.0393,0.037,0.0369,0.0369,0.0369,0.0368,0,-0.0731,-0.0761,-0.0767,-0.0791,-0.0827,-0.0783,-0.0789,-0.0742,-0.067,-0.064,-0.0502,-0.044,-0.0237,-0.009,0.005,0.0258,0.025,0.0387,0.0429,0.0367,0.0365,0.0342,0.0337,0.0373,0.0372,0.0371,0.0371,0,-0.0798,-0.0802,-0.0852,-0.086,-0.0865,-0.089,-0.0872,-0.0869,-0.0786,-0.0738,-0.0708,-0.0522,-0.0321,-0.011,0.0125,0.0254,0.0441,0.0512,0.0421,0.045,0.0534,0.0524,0.0661,0.0663,0.0666,0.0668,0.067,0,-0.0837,-0.0872,-0.0917,-0.0953,-0.0962,-0.0986,-0.1,-0.0939,-0.0924,-0.0786,-0.0765,-0.0557,-0.0393,-0.0016,0.0244,0.0515,0.0512,0.0619,0.0594,0.0541,0.0568,0.0554,0.0542,0.0565,0.0566,0.0566,0.0567,0,-0.0909,-0.0923,-0.0964,-0.1047,-0.1084,-0.1119,-0.1126,-0.1132,-0.1042,-0.0975,-0.084,-0.0695,-0.0314,-0.0007,0.0362,0.0509,0.0574,0.0641,0.0629,0.0503,0.0462,0.0484,0.0473,0.0572,0.0571,0.0571,0.0571,0.0571,-0.0953,-0.1004,-0.1061,-0.1134,-0.1186,-0.1233,-0.1257,-0.1232,-0.1198,-0.107,-0.0921,-0.068,-0.0356,0.016,0.0423,0.0665,0.0662,0.0708,0.0701,0.0695,0.0667,0.0634,0.0769,0.077,0.077,0.0771,0.0771,0,-0.1005,-0.1063,-0.1144,-0.1227,-0.1298,-0.1301,-0.1326,-0.1312,-0.1268,-0.1115,-0.0952,-0.06,-0.0229,0.0107,0.0493,0.0734,0.07,0.0764,0.0664,0.0658,0.0653,0.0618,0.071,0.071,0.0711,0.0711,0,0,-0.1033,-0.1122,-0.1169,-0.13,-0.1359,-0.1418,-0.143,-0.138,-0.1277,-0.1119,-0.0936,-0.0666,-0.0246,0.0013,0.0319,0.052,0.052,0.0535,0.0558,0.0396,0.0388,0.0596,0.0534,0,0,0,0,0]}],[{"header":{"parameterUnit":"m.s-1","parameterCategory":2,"la1":30.2991,"la2":30.254,"lo1":-89.0895,"lo2":-89.0444,"dy":0.0017,"dx":0.0017,"nx":28,"ny":28,"refTime":"2025-12-16T09:00:00:Z","depth":"4","parameterNumber":2,"parameterNumberName":"U-component_of_CURRENTS"},"data":[0,0,0,0,0,0,0,0,0,0,0,0,0,0,0,0,0,0,0,0,0,0,0,0,0,0,0,0,0,0,0,0,0,0,0,0,0,0,0,0,0,0,0,0,0,0,0,0,0,0,0,0,0,0,0,0,0,0,-0.1707,-0.1708,0,-0.1773,-0.1773,-0.1774,-0.181,-0.181,-0.181,-0.1811,-0.1861,-0.1862,-0.1863,0,0,0,0,0,0,0,0,0,0,0,0,0,-0.1608,-0.161,-0.1707,-0.1708,-0.1709,-0.1772,-0.1773,-0.1774,-0.181,-0.181,-0.181,-0.1811,-0.1861,-0.1862,-0.1863,0,0,0,0,0,0,0,0,0,0,0,0,0,-0.1658,-0.161,-0.1707,-0.1736,-0.1739,-0.1772,-0.1773,-0.1774,-0.181,-0.181,-0.181,-0.1811,-0.186,-0.1862,-0.1864,-0.1865,0,0,-0.1869,-0.1869,0,0,0,0,0,0,0,0,-0.1655,-0.1662,-0.173,-0.1734,-0.1738,-0.1785,-0.1757,-0.1805,-0.1809,-0.1781,-0.1811,-0.1811,-0.1835,-0.1839,-0.1848,-0.1868,-0.187,-0.1869,-0.187,-0.187,-0.1871,0,0,0,0,0,0,0,-0.1652,-0.1659,-0.1731,-0.1732,-0.1736,-0.1744,-0.1752,-0.1766,-0.1803,-0.1783,-0.1787,-0.1797,-0.1837,-0.1846,-0.1849,-0.1871,-0.1869,-0.187,-0.1871,-0.1872,-0.1969,-0.197,0,0,0,0,0,0,-0.1648,-0.1656,-0.1729,-0.1733,-0.1699,-0.1746,-0.1754,-0.1768,-0.1803,-0.181,-0.1797,-0.1798,-0.1843,-0.1847,-0.1851,-0.1928,-0.187,-0.1872,-0.1873,-0.1967,-0.1969,-0.1971,0,0,0,0,0,0,-0.1645,-0.1654,-0.1726,-0.1697,-0.1707,-0.1748,-0.1762,-0.1769,-0.1807,-0.1814,-0.182,-0.1832,-0.1844,-0.1849,-0.1895,-0.1927,-0.1873,-0.1874,-0.1965,-0.1968,-0.197,-0.2035,0,0,0,0,0,0,-0.1642,-0.1653,-0.1675,-0.1697,-0.1709,-0.1767,-0.1762,-0.177,-0.1812,-0.1816,-0.1845,-0.1849,-0.1844,-0.1892,-0.1896,-0.1929,-0.1875,-0.1963,-0.1966,-0.1969,-0.2031,-0.2039,-0.2047,0,0,0,0,0,-0.1639,-0.1664,-0.1675,-0.1685,-0.1733,-0.1769,-0.1776,-0.1804,-0.1814,-0.1838,-0.1861,-0.185,-0.1914,-0.1895,-0.1899,-0.1933,-0.1962,-0.1965,-0.1969,-0.2027,-0.2038,-0.2046,0,0,0,0,0,0,-0.1634,-0.167,-0.1684,-0.172,-0.1752,-0.1776,-0.1806,-0.1822,-0.1859,-0.1871,-0.1872,-0.1878,-0.1929,-0.1924,-0.1903,-0.197,-0.1935,-0.194,-0.1978,-0.1988,-0.1995,-0.1992,-0.1877,0,0,0,0,0,-0.1642,-0.1672,-0.1704,-0.1736,-0.1756,-0.1786,-0.181,-0.183,-0.1859,-0.1878,-0.19,-0.1921,-0.1942,-0.196,-0.1977,-0.2016,-0.1998,-0.204,-0.2048,-0.2054,-0.2055,-0.2057,-0.2064,-0.1983,-0.1982,-0.1982,0,0,-0.165,-0.1674,-0.1692,-0.1738,-0.1766,-0.1803,-0.1802,-0.1849,-0.1885,-0.1876,-0.1941,-0.1953,-0.1959,-0.2003,-0.2025,-0.2007,-0.207,-0.2059,-0.2064,-0.2061,-0.2061,-0.2069,-0.2076,-0.1985,-0.1985,-0.1984,0,0,-0.167,-0.1703,-0.1733,-0.1765,-0.1815,-0.1835,-0.1856,-0.1901,-0.1931,-0.1987,-0.1988,-0.2023,-0.2062,-0.2071,-0.2078,-0.2139,-0.2112,-0.2149,-0.2188,-0.2191,-0.2198,-0.2203,-0.2195,-0.2199,-0.2154,-0.2154,-0.2154,0,-0.168,-0.172,-0.1748,-0.1786,-0.1819,-0.1854,-0.1895,-0.193,-0.1987,-0.2012,-0.2019,-0.2081,-0.2091,-0.2129,-0.2154,-0.2157,-0.2149,-0.2151,-0.22,-0.2205,-0.2209,-0.22,-0.2204,-0.2157,-0.2157,-0.2157,-0.2156,0,-0.1712,-0.1759,-0.1782,-0.1839,-0.1879,-0.1922,-0.197,-0.2019,-0.2058,-0.2085,-0.2146,-0.2162,-0.2193,-0.2207,-0.2203,-0.2244,-0.2225,-0.2209,-0.2173,-0.2221,-0.2209,-0.2212,-0.2162,-0.2161,-0.216,-0.2159,0,0,-0.169,-0.1785,-0.1797,-0.1834,-0.1913,-0.1942,-0.2015,-0.2076,-0.2119,-0.2174,-0.2222,-0.2266,-0.2273,-0.228,-0.2281,-0.2291,-0.2321,-0.227,-0.2269,-0.2257,-0.2323,-0.2178,-0.2167,-0.2314,-0.2314,-0.2315,-0.2303,0,-0.1707,-0.178,-0.1829,-0.1906,-0.1945,-0.2008,-0.2067,-0.2129,-0.2181,-0.2237,-0.2263,-0.2308,-0.23,-0.2321,-0.2332,-0.2323,-0.233,-0.2325,-0.2282,-0.2281,-0.2141,-0.2165,-0.2318,-0.2305,-0.2305,-0.2306,-0.2306,0,-0.1713,-0.1764,-0.1842,-0.1937,-0.1962,-0.2018,-0.2111,-0.2168,-0.2249,-0.229,-0.2336,-0.2355,-0.239,-0.2373,-0.2379,-0.2377,-0.2359,-0.2346,-0.2345,-0.2185,-0.214,-0.2246,-0.231,-0.231,-0.2309,-0.2309,-0.2309,0,-0.166,-0.1768,-0.183,-0.1865,-0.1979,-0.2033,-0.2095,-0.2185,-0.2232,-0.2321,-0.2357,-0.24,-0.2421,-0.2414,-0.2393,-0.2393,-0.2382,-0.2372,-0.2224,-0.2214,-0.232,-0.2314,-0.2372,-0.2372,-0.2372,-0.2372,-0.2372,0,-0.1638,-0.169,-0.1818,-0.1849,-0.1923,-0.2014,-0.2095,-0.2162,-0.2255,-0.2293,-0.2375,-0.2391,-0.2433,-0.243,-0.2407,-0.2311,-0.239,-0.2226,-0.2198,-0.2349,-0.2347,-0.2321,-0.2316,-0.2371,-0.2371,-0.2371,-0.2371,0,-0.1562,-0.1652,-0.1725,-0.1856,-0.19,-0.195,-0.2082,-0.2122,-0.2233,-0.2284,-0.2313,-0.2392,-0.2382,-0.2398,-0.2383,-0.2303,-0.2245,-0.2194,-0.2354,-0.2336,-0.2076,-0.2074,-0.2024,-0.2018,-0.2014,-0.201,-0.2007,0,-0.1526,-0.156,-0.1704,-0.1742,-0.1808,-0.1902,-0.1954,-0.2089,-0.2123,-0.2251,-0.2246,-0.23,-0.2328,-0.2184,-0.2225,-0.2165,-0.214,-0.2098,-0.2086,-0.206,-0.2039,-0.2045,-0.2049,-0.2,-0.1999,-0.1997,-0.1996,0,-0.1443,-0.151,-0.1565,-0.1646,-0.1715,-0.1782,-0.1868,-0.1881,-0.2014,-0.2138,-0.2117,-0.2108,-0.2096,-0.2074,-0.2042,-0.2001,-0.2117,-0.205,-0.206,-0.2049,-0.2031,-0.2016,-0.2025,-0.1981,-0.1983,-0.1984,-0.1985,0,-0.1374,-0.1388,-0.1466,-0.1518,-0.1597,-0.1619,-0.1696,-0.1731,-0.1786,-0.1932,-0.1916,-0.198,-0.2066,-0.1988,-0.1956,-0.1905,-0.1878,-0.181,-0.1831,-0.1849,-0.1796,-0.1749,-0.158,0,0,0,0,0,-0.1291,-0.1286,-0.1326,-0.1375,-0.1445,-0.149,-0.1607,-0.1686,-0.182,-0.1749,-0.183,-0.1812,-0.1778,-0.1814,-0.1722,-0.1876,-0.1884,-0.1762,-0.1818,-0.1894,-0.1912,-0.1866,0,0,0,0,0,0,-0.1234,-0.1264,-0.1273,-0.1232,-0.1235,-0.1296,-0.1364,-0.1467,-0.1444,-0.1588,-0.1574,-0.1688,-0.1677,-0.1789,-0.1675,-0.1686,-0.1681,-0.1815,-0.1809,-0.1884,-0.1901,-0.1915,-0.1874,0,0,0,0,0]},{"header":{"parameterUnit":"m.s-1","parameterCategory":2,"la1":30.2991,"la2":30.254,"lo1":-89.0895,"lo2":-89.0444,"dy":0.0017,"dx":0.0017,"nx":28,"ny":28,"refTime":"2025-12-16T09:00:00:Z","depth":"4","parameterNumber":3,"parameterNumberName":"V-component_of_CURRENTS"},"data":[0,0,0,0,0,0,0,0,0,0,0,0,0,0,0,0,0,0,0,0,0,0,0,0,0,0,0,0,0,0,0,0,0,0,0,0,0,0,0,0,0,0,0,0,0,0,0,0,0,0,0,0,0,0,0,0,0,0,-0.0186,-0.0185,0,-0.0127,-0.0127,-0.0126,-0.0084,-0.0084,-0.0084,-0.0084,0.0009,0.0011,0.0013,0,0,0,0,0,0,0,0,0,0,0,0,0,-0.0216,-0.0215,-0.0186,-0.0185,-0.0184,-0.0127,-0.0127,-0.0126,-0.0084,-0.0084,-0.0084,-0.0084,0.0008,0.001,0.0013,0,0,0,0,0,0,0,0,0,0,0,0,0,-0.0183,-0.0215,-0.0186,-0.0158,-0.0155,-0.0128,-0.0126,-0.0125,-0.0084,-0.0084,-0.0084,-0.0084,0.0007,0.001,0.0014,0.0029,0,0,0.0024,0.0026,0,0,0,0,0,0,0,0,-0.0185,-0.0182,-0.0163,-0.016,-0.0157,-0.0114,-0.0103,-0.0072,-0.0084,-0.011,-0.0084,-0.0083,-0.0031,-0.0024,-0.0012,0.0034,0.0038,0.0024,0.0026,0.0028,0.0029,0,0,0,0,0,0,0,-0.0187,-0.0184,-0.0161,-0.0162,-0.0159,-0.0133,-0.0129,-0.0097,-0.007,-0.0107,-0.0105,-0.0101,-0.0028,-0.0015,-0.0009,0.0039,0.0024,0.0027,0.0029,0.0031,0.0114,0.0114,0,0,0,0,0,0,-0.0201,-0.0186,-0.0163,-0.0159,-0.0172,-0.0133,-0.0128,-0.0127,-0.0071,-0.0063,-0.0101,-0.0099,-0.0021,-0.0013,-0.0006,0.0019,0.0028,0.0031,0.0033,0.0114,0.0114,0.0114,0,0,0,0,0,0,-0.0202,-0.0199,-0.0165,-0.0172,-0.0167,-0.0134,-0.0132,-0.0126,-0.0115,-0.0067,-0.0058,-0.0097,-0.0021,-0.0011,0.0021,0.0023,0.0033,0.0036,0.0113,0.0114,0.0114,0.0067,0,0,0,0,0,0,-0.0203,-0.02,-0.0206,-0.0174,-0.0167,-0.0155,-0.0133,-0.0125,-0.0114,-0.011,-0.0061,-0.0052,-0.002,0.0015,0.0024,0.0028,0.0038,0.0113,0.0113,0.0114,0.0068,0.0065,0.0063,0,0,0,0,0,-0.0204,-0.0214,-0.0207,-0.0204,-0.0176,-0.0156,-0.015,-0.0124,-0.0114,-0.0112,-0.0077,-0.0054,0.0023,0.0018,0.0028,0.0033,0.0113,0.0113,0.0114,0.0069,0.0066,0.0063,0,0,0,0,0,0,-0.0231,-0.021,-0.0201,-0.0205,-0.0185,-0.0149,-0.0148,-0.0129,-0.01,-0.0098,-0.0052,-0.0041,-0.0012,0.0016,0.0009,0.0058,0.0072,0.0075,0.0035,0.0032,0.003,0.0016,0.0041,0,0,0,0,0,-0.0241,-0.0244,-0.0217,-0.0221,-0.0214,-0.0182,-0.0172,-0.0155,-0.0125,-0.0112,-0.0077,-0.0038,-0.0003,0.0018,0.0051,0.0077,0.0109,0.0088,0.0085,0.0083,0.0079,0.0132,0.0134,0.0115,0.0115,0.0115,0,0,-0.0253,-0.0243,-0.0244,-0.0227,-0.021,-0.0205,-0.0175,-0.0165,-0.0156,-0.0107,-0.0085,-0.0048,0.0001,0.0031,0.0046,0.0055,0.0104,0.0083,0.0081,0.0078,0.0133,0.0134,0.0136,0.0115,0.0115,0.0115,0,0,-0.0279,-0.027,-0.028,-0.0267,-0.0249,-0.0227,-0.0227,-0.0194,-0.0175,-0.0152,-0.0111,-0.0074,-0.0025,0.0016,0.0042,0.0046,0.0085,0.0055,0.0035,0.0086,0.0088,0.0091,0.0125,0.0131,0.0057,0.0057,0.0057,0,-0.0296,-0.0305,-0.028,-0.0285,-0.028,-0.0241,-0.0249,-0.0222,-0.0182,-0.0165,-0.0153,-0.0071,-0.0031,0.0017,0.0019,0.004,0.0069,0.0041,0.0083,0.0085,0.0088,0.0124,0.0131,0.0055,0.0055,0.0055,0.0055,0,-0.0325,-0.0334,-0.0339,-0.0333,-0.0322,-0.0323,-0.0287,-0.027,-0.0244,-0.0212,-0.0167,-0.0107,-0.0058,-0.0036,-0.0007,0.0035,0.0048,0.007,0.0087,0.0087,0.0125,0.0133,0.0051,0.0052,0.0053,0.0053,0,0,-0.0358,-0.0362,-0.0364,-0.0376,-0.035,-0.0348,-0.0329,-0.03,-0.029,-0.0239,-0.0216,-0.0145,-0.0109,-0.0078,-0.0029,0.0018,0.0064,0.0047,0.0051,0.0075,0.0167,0.0154,0.0162,0.0093,0.0094,0.0095,0.0181,0,-0.0391,-0.0423,-0.0406,-0.0431,-0.0444,-0.0405,-0.0394,-0.036,-0.032,-0.0285,-0.0209,-0.017,-0.0124,-0.0102,-0.0046,0.0039,0.0084,0.0038,0.0169,0.0172,0.0156,0.017,0.0099,0.0188,0.0189,0.0191,0.0192,0,-0.0422,-0.0442,-0.0478,-0.049,-0.0491,-0.0497,-0.0475,-0.0458,-0.039,-0.0357,-0.0294,-0.0233,-0.0149,-0.0117,0.0029,-0.0003,0.0072,0.0137,0.0142,0.0152,0.0175,0.0192,0.0207,0.0205,0.0204,0.0203,0.0202,0,-0.0464,-0.049,-0.0527,-0.0531,-0.0532,-0.054,-0.0535,-0.0485,-0.0474,-0.0401,-0.0379,-0.0269,-0.0216,-0.0101,0.0039,0.0035,0.0195,0.021,0.0268,0.0268,0.0273,0.027,0.0303,0.0303,0.0303,0.0303,0.0302,0,-0.05,-0.0531,-0.0557,-0.0578,-0.0622,-0.0597,-0.0619,-0.0591,-0.0548,-0.0531,-0.0424,-0.0383,-0.0209,-0.0093,0.0028,0.0174,0.0192,0.0265,0.0293,0.025,0.0244,0.0279,0.0275,0.0306,0.0305,0.0305,0.0304,0,-0.0535,-0.0551,-0.0603,-0.0631,-0.0647,-0.0678,-0.0693,-0.0699,-0.0647,-0.062,-0.0599,-0.0461,-0.0305,-0.0131,0.0064,0.0152,0.0296,0.0341,0.0274,0.0297,0.0334,0.0327,0.041,0.041,0.041,0.0411,0.0411,0,-0.0555,-0.0586,-0.0654,-0.0696,-0.0717,-0.0759,-0.0785,-0.0757,-0.0753,-0.0665,-0.0652,-0.0503,-0.0392,-0.0123,0.0053,0.0286,0.0314,0.0379,0.0363,0.0328,0.0347,0.0339,0.0332,0.0411,0.0411,0.0411,0.0412,0,-0.0591,-0.0621,-0.0664,-0.0756,-0.0809,-0.0857,-0.0885,-0.089,-0.0837,-0.0797,-0.0682,-0.0526,-0.0351,-0.0134,0.0051,0.0215,0.0335,0.0383,0.0383,0.0368,0.0331,0.0348,0.034,0.0413,0.0412,0.0412,0.0412,0,-0.0617,-0.0661,-0.0727,-0.0801,-0.0877,-0.0926,-0.0937,-0.0915,-0.0898,-0.0787,-0.0755,-0.0545,-0.042,-0.0171,-0.0002,0.0163,0.0197,0.0236,0.0244,0.0245,0.0173,0.01,0.0135,0,0,0,0,0,-0.0633,-0.0686,-0.0766,-0.0846,-0.0922,-0.096,-0.0988,-0.0979,-0.0931,-0.086,-0.08,-0.063,-0.0355,-0.0234,-0.0071,-0.0011,0.0213,0.0181,0.0257,0.0418,0.0417,0.0359,0,0,0,0,0,0,-0.0647,-0.0724,-0.0767,-0.0865,-0.0924,-0.0996,-0.1015,-0.0984,-0.093,-0.0859,-0.0712,-0.061,-0.0344,-0.0448,-0.0074,-0.0023,0.0042,0.0319,0.0322,0.0419,0.0418,0.0417,0.0357,0,0,0,0,0]}]]